Theta_e
307 307 307 307 306 306 306 306 307 307 307 308 309 310 309 309 309 309 309 311 311 310 310 309 309 310 310 309 310 311 312 313 315 317 317 318 319 318 314 315 316 316 316 316 316 316 317 315 314 313 313 312 313 314 314 313 313 314 314 313 312 311 311 310 309 308 309 309 308 307 307 306 306 306 305 305 305 305 304 304 304 304 304 304 304 304 304
306 306 306 306 305 305 305 305 305 306 306 307 308 308 308 308 309 309 309 311 311 310 309 309 308 309 310 309 309 309 310 310 312 314 314 316 318 318 318 316 315 315 315 315 316 318 318 315 313 312 311 311 312 313 313 312 313 314 313 312 311 310 309 309 309 308 308 308 307 306 306 306 306 305 305 304 304 304 304 303 304 304 304 304 304 304 304
306 305 305 304 304 304 304 304 304 305 306 307 307 308 308 308 309 309 309 311 311 310 309 308 309 309 309 309 309 309 310 310 311 313 313 313 315 316 317 318 314 314 315 314 315 318 316 313 312 311 310 310 311 312 312 312 312 312 312 310 310 309 308 308 308 308 307 306 306 306 306 305 305 305 304 304 303 303 303 303 303 303 303 303 303 303 303
305 305 304 304 304 304 305 305 306 306 306 307 307 308 308 309 310 310 310 309 309 308 308 309 308 309 308 309 309 309 311 311 310 312 313 313 313 314 315 316 315 314 315 315 315 316 315 312 311 311 310 310 310 311 311 311 311 310 310 309 308 308 307 307 307 307 306 306 306 305 305 305 304 304 303 303 303 302 302 302 302 302 302 302 302 302 302
304 304 303 304 304 305 304 306 306 307 307 308 307 308 308 308 309 309 308 308 307 308 308 308 308 309 308 308 309 309 311 312 311 311 312 313 314 313 314 315 316 315 315 314 315 314 313 312 311 310 310 309 310 311 311 310 310 308 308 308 307 307 307 307 306 306 305 305 305 304 304 304 303 303 303 302 302 301 301 301 300 300 300 301 301 301 301
304 304 304 304 305 304 304 305 306 306 307 307 307 308 308 309 309 308 308 308 308 308 309 308 309 309 308 309 309 310 312 313 313 312 311 313 314 313 315 316 316 314 313 314 313 313 312 311 310 309 310 309 309 310 310 309 308 307 307 307 307 307 307 306 305 305 304 304 304 304 304 303 302 302 302 302 301 301 300 300 299 299 299 299 299 299 300
303 304 303 304 304 305 305 305 306 306 306 306 307 308 308 308 309 309 308 308 308 308 309 309 309 309 310 310 310 310 311 312 314 314 313 313 315 316 317 316 315 313 313 313 313 313 312 311 310 309 309 309 309 310 309 308 307 306 307 307 307 307 307 306 305 304 304 304 304 304 303 303 302 301 301 301 300 300 299 299 299 298 298 298 298 298 298
303 303 303 304 304 304 305 306 305 305 306 307 308 308 307 307 307 308 307 307 308 309 309 309 309 309 309 309 309 310 310 311 313 315 315 314 314 316 316 316 313 313 314 313 314 313 312 311 310 309 309 309 309 309 308 307 306 306 306 306 307 306 306 305 304 303 303 303 303 303 302 302 301 301 301 300 300 299 299 298 298 298 298 298 298 298 298
303 303 303 303 304 304 304 306 306 306 307 308 308 308 307 307 306 307 307 308 309 310 309 309 310 309 309 310 310 310 310 310 312 313 313 314 313 314 315 314 313 314 314 314 315 314 313 312 311 310 309 309 309 308 307 307 306 306 306 306 306 305 305 304 303 303 303 303 303 303 302 302 301 301 301 300 299 299 299 298 298 298 297 297 297 297 297
303 302 302 303 304 304 304 306 309 309 310 310 309 307 307 307 307 308 310 310 310 310 309 309 309 309 310 310 310 310 310 311 312 312 312 314 314 314 314 314 315 314 314 314 314 313 312 312 310 310 309 309 309 307 306 306 306 306 306 306 306 305 304 303 302 302 302 302 303 303 302 301 301 300 300 299 299 299 298 298 298 297 297 297 297 297 297
303 303 303 303 304 304 304 307 309 309 309 309 308 306 305 306 308 309 309 309 309 309 310 309 308 309 310 310 310 311 311 311 312 313 314 315 315 314 314 314 314 313 313 312 312 311 311 310 310 309 308 308 308 307 306 306 306 306 306 306 305 304 303 302 301 301 302 302 302 302 302 301 300 300 300 299 299 298 298 297 297 297 296 296 296 296 296
303 304 303 303 303 303 304 306 307 307 307 308 306 304 304 306 308 309 308 308 308 309 309 309 309 308 309 310 310 311 310 311 312 313 313 314 313 313 313 312 312 313 313 311 310 310 310 310 309 309 308 308 307 306 306 306 306 306 306 305 304 303 302 301 301 301 302 302 302 302 302 301 300 300 299 299 298 298 297 297 296 296 296 296 295 296 295
304 304 304 304 304 304 306 307 306 306 307 306 305 304 304 305 306 307 308 308 308 308 308 308 309 308 308 309 310 310 311 311 312 313 312 312 312 311 311 311 311 312 311 309 309 310 309 309 309 308 308 307 306 306 306 306 306 306 305 304 303 302 301 301 301 301 301 302 301 301 301 300 299 299 299 298 298 297 297 296 296 295 295 295 295 295 294
303 304 304 303 303 305 307 306 305 305 306 305 305 305 305 305 305 306 308 308 308 308 308 308 307 307 307 307 309 311 311 312 311 313 313 313 313 311 310 310 309 309 309 309 309 309 309 308 309 308 307 306 306 306 306 306 306 305 304 303 302 301 301 301 301 301 301 301 301 301 301 300 299 298 298 298 297 297 296 295 295 295 294 294 294 294 294
302 303 303 302 302 305 306 304 303 304 305 304 304 305 305 306 306 306 307 308 307 307 307 307 307 306 306 307 309 311 312 312 312 313 313 314 313 311 310 308 307 307 308 309 309 309 308 308 308 308 307 306 306 306 306 306 305 304 303 301 301 301 301 301 301 301 301 301 301 300 300 299 299 298 298 297 297 296 296 295 294 294 293 293 293 293 293
301 301 301 301 302 303 304 303 302 303 304 304 304 305 305 306 306 306 306 307 307 307 307 306 306 307 306 307 309 311 312 312 312 313 313 313 311 309 309 308 307 307 308 308 309 309 307 307 308 307 306 306 306 306 306 305 304 303 302 301 301 301 301 301 301 300 300 300 300 300 299 299 298 297 297 297 296 296 295 294 293 293 292 292 292 292 292
302 301 302 302 302 302 302 303 302 303 304 305 305 305 306 306 306 306 306 306 306 307 306 306 307 306 306 308 309 310 311 311 311 312 311 309 308 308 307 308 307 307 307 307 309 309 307 306 307 307 306 306 306 306 306 304 303 302 301 301 301 301 301 301 300 299 299 299 299 299 298 298 298 297 297 296 296 295 295 294 293 292 292 291 291 291 291
302 302 302 302 301 301 302 302 302 302 303 304 305 306 306 306 306 306 306 306 307 307 306 306 306 306 306 308 308 309 309 310 309 308 307 306 307 307 307 308 307 307 307 307 309 308 307 306 306 306 305 306 306 305 305 303 302 302 301 301 301 301 300 300 299 299 299 299 298 297 298 298 298 297 296 296 295 294 294 293 292 291 291 290 290 290 290
302 302 302 301 301 301 302 302 302 303 303 304 306 306 306 306 306 306 306 306 307 306 306 306 306 305 306 307 307 307 307 308 307 306 306 307 307 307 307 307 307 307 307 308 308 308 307 306 306 305 305 305 305 304 303 302 301 302 301 300 301 300 300 299 299 299 298 297 297 297 297 297 297 296 296 295 295 294 294 293 292 291 291 290 290 290 290
302 302 301 301 301 301 301 301 302 304 304 304 305 305 305 306 305 305 306 306 306 305 305 305 306 305 305 305 305 305 305 306 305 305 306 307 307 307 307 307 307 307 308 308 308 308 307 306 305 305 305 305 305 304 302 302 302 301 300 300 300 300 299 299 299 298 298 298 298 297 297 297 297 296 296 295 295 294 294 293 292 291 291 290 290 289 289
301 300 300 301 301 300 301 301 302 304 304 303 304 304 305 305 305 305 305 305 304 304 304 304 305 304 304 304 305 305 305 305 304 305 306 307 307 307 307 307 307 308 308 308 308 308 307 305 305 304 304 305 304 303 302 302 302 301 300 300 300 300 300 299 299 298 298 299 299 298 297 297 296 296 295 295 295 294 293 293 292 291 290 290 289 289 289
300 300 300 301 301 300 301 301 302 304 304 304 304 304 305 305 305 304 304 304 302 302 302 302 302 303 303 304 303 303 304 304 304 306 306 306 307 306 307 307 307 307 308 307 308 308 307 306 305 304 304 304 304 303 302 302 301 301 301 301 301 300 300 300 299 298 299 299 299 298 297 297 296 296 295 295 294 294 293 292 292 291 291 290 290 289 289
300 300 301 301 301 300 300 301 302 303 304 304 304 305 305 306 305 304 303 303 301 300 299 300 301 302 303 303 302 302 303 303 304 305 305 305 306 306 306 307 307 307 307 307 307 308 307 306 304 304 304 304 304 302 301 301 301 301 301 301 301 301 301 300 299 299 299 299 299 298 297 297 297 296 296 295 294 293 293 292 292 291 291 290 290 289 289
300 300 301 301 300 300 301 302 302 303 303 303 304 305 305 305 304 302 302 302 300 299 299 300 301 302 303 303 302 302 302 303 303 304 304 305 305 305 306 306 307 307 307 307 308 308 307 306 305 304 303 303 302 302 302 302 302 301 301 301 301 301 301 300 300 299 299 299 299 298 298 297 297 297 296 295 294 293 293 293 292 292 291 291 290 289 289
300 301 301 301 300 300 301 302 302 302 302 303 304 304 305 304 303 302 302 301 299 298 299 300 301 303 304 304 304 303 303 303 303 303 304 305 305 305 306 306 307 307 307 308 308 307 307 306 304 303 303 303 302 302 302 302 302 302 301 301 302 301 300 300 300 300 299 299 299 298 297 297 296 296 296 295 294 293 293 293 292 292 291 291 290 289 289
301 301 301 300 301 301 302 301 302 303 303 304 304 304 304 305 303 301 301 300 299 299 299 301 302 303 304 304 304 303 303 303 303 304 305 306 305 306 306 306 306 306 306 306 306 306 306 304 303 303 303 303 303 302 302 302 302 302 301 301 301 300 299 298 300 300 300 299 299 298 297 296 296 296 296 295 294 293 293 293 292 292 291 290 290 289 289
300 300 301 301 301 302 302 302 302 303 303 304 304 303 304 305 304 302 302 302 301 300 300 301 303 303 304 304 303 303 303 303 304 305 306 306 306 306 306 306 306 306 306 306 305 305 304 304 303 303 303 303 303 302 302 301 302 302 301 301 301 299 298 298 299 300 300 299 299 298 297 296 296 296 296 295 294 294 293 293 292 292 291 291 290 290 289
300 300 301 301 301 301 302 302 303 303 303 303 303 304 304 304 304 303 304 304 302 301 301 302 303 304 303 303 303 303 303 304 305 305 306 306 306 306 305 305 306 306 306 305 305 304 304 304 304 304 304 304 303 302 302 301 302 301 301 301 301 300 300 300 300 300 300 300 299 298 296 296 296 296 295 295 294 294 294 293 292 292 291 291 290 290 289
301 301 301 301 301 302 302 303 303 303 303 303 304 304 303 303 303 302 304 304 303 302 302 303 303 304 304 303 303 303 303 304 304 305 305 306 305 305 304 304 304 305 305 305 305 305 304 304 304 304 304 303 303 303 302 301 302 302 301 301 300 301 301 300 300 300 300 300 299 297 296 296 297 297 295 295 295 295 294 293 292 291 291 291 290 290 290
301 301 301 301 301 302 302 303 303 303 302 303 303 303 303 303 302 302 304 305 303 301 302 303 303 303 303 303 303 303 303 304 304 304 305 305 305 305 304 304 303 303 303 304 304 304 304 304 304 304 304 304 303 303 302 301 302 301 301 300 300 300 300 299 298 298 299 300 299 298 297 297 297 297 296 295 295 295 294 293 292 291 291 291 290 290 290
301 301 301 301 302 302 302 302 302 302 302 302 302 303 303 303 302 303 304 304 302 301 301 303 303 303 304 303 303 303 303 304 304 304 304 304 304 303 303 302 302 301 301 301 302 302 303 303 303 303 303 303 302 302 302 302 301 301 300 300 300 300 299 297 296 297 298 299 298 298 298 297 297 297 296 295 295 295 294 293 292 292 291 291 291 290 289
301 301 301 301 302 301 302 302 302 302 302 302 302 302 301 302 303 303 303 302 301 301 301 302 303 304 304 303 302 303 303 303 303 303 303 303 303 302 302 301 301 301 300 300 300 300 301 301 302 302 301 301 301 300 299 299 298 299 299 299 300 300 299 297 297 297 298 299 299 299 298 297 297 296 296 295 295 295 294 294 293 292 291 291 290 290 289
300 301 301 301 301 301 301 301 301 301 301 301 301 301 301 302 303 302 301 301 301 301 301 302 303 303 303 302 302 303 303 303 303 303 303 302 302 302 302 301 301 301 300 300 300 300 300 300 301 301 301 301 301 300 299 298 298 298 299 300 300 301 300 299 299 299 299 300 300 300 298 297 297 296 296 295 295 295 294 294 293 292 292 291 290 290 290
301 300 300 300 300 300 300 300 300 300 300 300 301 301 302 303 302 301 300 301 301 301 302 303 303 303 303 303 302 303 302 302 302 302 301 301 301 301 301 301 301 301 300 300 300 300 299 300 300 301 301 301 302 301 301 300 300 300 301 301 301 302 301 300 300 300 300 300 300 299 299 298 297 296 296 296 295 295 295 294 294 293 292 291 290 290 290
300 299 299 299 299 299 298 298 298 298 299 300 301 302 303 303 302 301 301 301 301 302 302 303 302 303 303 302 302 301 301 301 301 301 300 299 299 299 300 300 300 300 300 300 300 300 300 299 300 300 301 301 300 300 299 299 300 301 302 302 301 301 301 301 300 301 301 300 299 299 299 298 296 296 296 296 295 295 295 294 294 293 293 292 291 290 290
300 298 298 298 298 298 298 297 297 298 299 300 301 302 302 302 302 302 302 302 302 302 302 302 302 302 302 300 299 299 298 298 298 299 298 298 297 297 298 298 299 299 299 299 299 300 300 299 299 300 300 300 300 299 298 298 299 301 301 301 302 302 302 302 301 301 301 300 299 298 297 297 296 296 297 296 295 295 294 294 294 294 293 292 292 291 291
299 298 298 297 297 297 297 296 296 297 298 299 300 301 301 301 300 300 300 301 301 302 301 301 302 302 300 298 297 296 296 296 296 297 297 297 297 297 297 298 298 298 298 298 298 299 299 299 299 299 300 300 300 299 298 299 299 300 301 301 302 302 302 301 301 301 300 299 299 298 298 297 297 297 297 296 295 295 295 295 294 294 294 293 292 292 291
298 298 298 297 297 296 295 295 295 295 296 297 298 298 299 299 298 298 298 298 299 300 301 301 301 301 299 298 297 297 296 296 296 297 297 297 297 297 298 298 298 298 298 297 297 298 298 298 298 299 299 299 299 299 299 299 299 300 301 302 302 301 301 301 301 300 300 299 299 299 299 299 298 298 297 297 296 296 296 296 295 295 294 294 293 293 292
298 298 298 297 297 295 295 294 294 294 294 295 296 296 297 296 297 297 297 297 297 299 300 299 299 299 298 298 298 297 297 297 297 297 297 297 297 297 297 297 297 298 297 297 297 297 297 297 297 298 297 297 298 298 298 297 298 299 301 301 301 301 301 301 301 300 300 300 299 299 299 299 298 297 297 297 297 297 296 296 296 296 295 295 294 294 293
297 298 298 298 297 296 295 294 294 293 293 294 294 295 295 295 295 296 297 296 296 297 298 299 298 298 298 298 298 298 297 297 297 297 297 297 297 296 296 296 297 296 296 296 296 296 296 296 296 296 296 296 296 296 296 296 297 299 300 301 301 301 301 301 301 301 300 300 300 299 299 299 298 297 297 297 297 298 297 297 297 296 296 296 295 294 294
297 298 298 297 297 297 296 294 294 293 293 293 294 294 294 294 294 295 296 296 296 296 296 297 298 298 298 298 298 298 298 298 298 298 297 297 297 296 296 296 295 295 295 295 295 295 295 295 295 295 295 295 295 296 296 296 297 298 299 300 300 301 301 301 301 301 300 300 300 300 300 299 298 298 298 298 298 298 298 298 298 297 297 297 296 295 295
298 298 298 297 297 296 296 295 294 294 293 293 293 293 293 293 293 294 294 295 296 296 296 296 297 297 297 297 297 297 297 297 297 297 296 296 296 296 296 295 294 293 294 295 295 294 294 293 293 294 294 295 295 295 296 296 297 298 298 299 299 300 300 300 300 300 300 300 300 300 300 299 299 299 299 299 299 298 298 298 298 298 298 297 297 296 296
297 298 297 297 297 296 296 295 295 294 293 293 293 293 293 293 293 293 293 294 294 295 295 295 296 297 297 297 297 297 297 297 297 296 296 295 294 294 293 293 292 291 292 293 294 294 292 291 291 292 293 294 295 296 296 296 297 297 298 298 298 299 299 299 299 299 299 299 299 299 299 298 298 298 298 298 299 299 298 298 298 298 298 298 298 297 297
297 297 297 297 297 296 296 296 295 295 295 294 293 293 293 293 292 292 292 292 293 293 294 294 295 296 296 296 296 296 297 296 296 296 296 295 294 292 291 290 290 290 290 291 292 292 291 290 290 291 292 292 294 295 296 296 296 296 297 297 298 298 298 298 298 298 298 297 298 298 298 297 296 296 296 296 296 297 296 297 298 298 298 298 298 298 297
296 296 296 296 296 296 296 296 295 295 295 294 294 294 293 293 292 292 292 292 292 292 292 292 293 294 295 295 295 295 295 295 295 295 295 295 293 291 289 288 288 289 290 291 290 290 289 288 289 290 291 291 293 295 296 296 296 296 296 296 297 296 297 296 297 297 296 296 296 296 297 296 296 295 294 294 294 294 293 294 295 297 298 298 297 297 297
296 296 296 296 296 295 295 295 295 295 294 294 294 293 293 293 293 292 292 292 291 291 291 291 292 292 293 294 294 295 295 295 295 294 294 294 292 290 288 287 286 288 290 291 290 289 288 287 288 289 290 291 293 295 295 295 295 295 295 295 295 295 294 294 294 295 295 294 294 295 295 295 295 294 294 293 293 293 292 292 293 294 295 296 297 296 296
296 295 295 295 295 295 294 294 294 294 294 294 293 293 293 292 292 292 292 291 291 291 291 291 291 291 291 292 293 293 293 294 294 293 293 292 291 290 289 287 286 286 289 290 290 288 287 287 287 288 289 291 292 293 294 293 293 293 293 293 293 292 292 292 292 292 293 293 293 293 293 293 293 293 292 292 292 292 292 292 292 292 292 293 294 295 295
296 295 295 295 295 295 294 294 294 294 294 293 293 293 292 292 292 292 292 291 291 291 291 291 291 291 291 291 291 291 291 292 292 292 291 291 290 290 289 287 285 285 288 290 290 288 287 286 286 287 289 290 291 291 292 291 291 290 290 290 290 290 289 289 289 290 291 291 291 291 292 292 292 291 291 291 291 290 290 290 290 290 290 291 291 292 293
295 295 294 294 294 294 294 294 294 293 293 293 293 292 292 292 292 292 291 291 291 291 291 291 291 291 291 291 291 290 290 290 290 290 290 290 289 289 288 287 286 285 287 288 289 288 287 286 285 286 288 289 289 289 289 289 288 287 287 288 288 287 287 287 287 288 288 289 290 290 290 290 290 290 290 290 289 289 289 289 288 288 288 288 289 289 290
294 294 294 294 294 294 294 294 293 293 293 292 292 292 292 292 291 290 290 290 290 291 291 290 290 290 290 290 290 290 289 289 288 288 288 288 288 287 287 287 286 285 286 287 288 287 287 286 285 285 286 287 287 287 287 287 287 286 286 286 287 286 285 285 285 286 286 287 288 288 287 287 287 288 288 288 288 288 288 288 287 287 286 286 286 287 287
294 294 294 294 294 293 293 293 293 292 292 291 291 291 291 291 290 289 288 289 289 289 289 289 289 289 288 288 288 288 288 288 287 287 287 287 287 287 286 286 286 286 286 286 287 287 286 286 285 284 285 285 286 286 285 285 285 285 284 285 285 286 285 284 283 284 285 285 286 286 285 285 285 286 286 285 286 286 287 287 287 286 286 285 284 285 285
294 293 293 293 293 293 292 292 291 291 291 290 290 290 290 290 290 289 288 288 288 288 288 288 288 288 287 287 287 287 287 287 287 287 286 286 286 286 286 286 286 286 285 285 286 286 285 285 284 284 284 284 284 284 284 284 284 283 283 283 284 284 284 283 282 282 283 283 284 284 283 283 283 283 283 283 283 284 285 285 285 285 284 284 283 283 284
Wind_Speed
21 21 21 20 18 17 18 20 22 22 22 20 18 17 19 18 14 14 17 19 18 17 19 23 22 20 19 20 19 18 18 15 13 11 11 13 17 18 17 17 16 15 15 14 13 13 14 15 14 13 12 12 13 13 13 14 14 15 15 15 15 14 14 13 11 11 10 10 10 11 11 12 13 13 14 15 16 17 18 19 21 22 23 24 25 26 27
20 21 20 19 19 18 18 21 24 24 23 21 21 20 21 21 20 19 21 21 20 18 20 24 23 21 19 19 18 19 20 20 19 18 16 11 12 17 17 17 16 15 15 15 13 13 15 15 15 14 13 13 13 13 14 14 15 15 15 15 15 14 13 12 11 10 10 10 10 11 12 12 12 13 14 15 16 17 18 20 22 23 24 25 26 27 28
17 19 17 18 19 18 19 23 25 24 21 20 20 19 18 18 19 20 20 19 17 17 20 23 22 20 18 18 20 20 20 22 20 19 21 18 13 13 17 17 17 16 15 14 13 13 14 15 15 14 13 13 13 13 14 15 15 15 15 15 14 13 12 11 10 10 10 10 11 11 12 12 13 14 15 15 16 17 19 21 22 23 24 25 26 27 28
14 15 15 16 18 17 20 24 23 21 18 17 17 15 15 15 15 16 17 15 14 15 18 20 20 21 20 21 22 20 19 23 22 19 21 22 19 17 15 17 18 16 14 13 13 13 15 15 15 14 13 12 13 13 14 15 15 15 15 14 13 12 11 10 10 10 10 10 11 11 12 12 13 14 14 15 16 18 20 21 23 23 24 25 26 27 28
13 15 14 13 13 13 16 17 16 16 17 18 17 16 17 18 15 13 13 13 14 16 18 18 19 21 22 20 20 18 18 20 21 23 23 21 22 22 16 14 19 14 12 12 14 15 15 15 15 14 14 13 13 14 14 14 14 14 14 13 12 11 10 9 9 9 9 10 11 12 12 12 13 13 14 15 16 18 20 22 23 24 24 25 26 27 28
12 15 13 11 11 13 13 11 11 14 16 18 18 17 17 18 15 14 15 16 18 19 19 20 20 22 22 21 20 18 16 15 17 22 24 20 21 20 12 12 18 14 12 12 14 15 14 14 13 13 13 12 12 13 14 14 14 14 13 12 11 10 9 8 8 8 9 10 11 12 12 12 13 14 15 15 16 18 21 23 24 25 26 26 26 27 28
10 12 11 11 13 13 12 12 12 15 16 17 18 17 18 19 18 18 19 19 21 21 19 18 19 20 21 20 20 21 19 16 14 18 22 20 14 8 8 15 18 13 12 13 14 14 12 12 11 11 12 12 12 14 14 14 14 13 12 11 10 9 8 8 8 8 9 10 11 12 12 13 14 15 15 15 17 19 21 23 24 25 27 27 28 28 28
10 10 10 12 13 12 14 15 14 14 14 15 15 15 16 17 17 18 19 18 19 18 16 15 15 18 20 17 16 19 21 20 13 12 18 18 10 6 10 16 15 13 13 14 15 14 13 12 12 11 11 12 13 14 14 14 13 13 11 10 9 8 8 7 8 8 9 10 11 12 13 14 15 16 15 16 18 19 21 24 25 26 28 28 29 30 29
10 11 12 13 13 14 16 14 9 8 8 7 7 8 11 15 15 15 15 15 14 13 13 13 14 15 17 16 14 15 20 22 15 9 14 16 10 11 15 15 13 14 15 14 13 13 12 11 10 10 11 13 14 14 14 14 13 12 11 10 8 7 7 7 7 8 9 11 12 12 13 14 16 16 15 17 19 19 21 25 27 27 29 29 29 30 31
11 12 13 12 12 13 12 6 1 2 4 2 1 4 9 12 10 9 10 11 12 12 11 13 14 13 12 13 12 11 15 18 14 10 12 15 13 13 15 15 14 12 11 10 11 11 9 9 9 9 12 14 15 15 15 14 13 12 10 9 7 5 5 6 7 8 10 11 12 13 14 15 16 16 16 18 20 18 19 25 27 28 29 29 29 30 31
11 12 12 11 10 10 9 4 4 2 2 1 1 6 7 5 4 5 6 8 10 11 12 12 12 11 10 10 10 10 13 17 16 13 12 12 11 13 14 14 13 12 9 8 9 9 8 9 9 10 13 15 15 15 14 13 12 11 9 7 4 3 4 6 7 9 10 11 12 13 14 15 16 16 17 19 20 19 21 25 28 29 29 29 30 31 32
13 13 12 10 9 8 10 8 2 3 2 1 4 8 5 3 5 5 6 8 9 9 11 11 9 8 9 10 11 11 12 13 13 12 12 10 9 13 13 12 12 12 10 8 8 8 8 8 9 12 15 16 15 14 13 12 10 8 6 4 2 3 5 6 8 9 10 11 12 13 14 15 16 16 17 19 19 19 22 26 27 28 28 28 31 32 33
12 13 11 9 8 6 6 7 6 5 2 4 8 8 5 7 10 10 8 10 10 8 9 9 8 9 12 13 15 15 12 8 7 7 7 9 10 12 13 12 10 9 10 8 7 7 7 8 10 13 15 16 15 13 12 11 8 6 4 2 1 4 5 6 8 9 10 11 12 12 14 16 16 16 17 18 17 19 23 25 26 27 28 29 31 32 32
10 11 10 10 9 2 4 6 7 5 5 7 6 6 9 11 12 12 11 10 10 9 9 9 9 13 16 17 17 17 12 10 8 5 5 4 6 8 11 10 8 9 8 7 6 6 7 8 12 15 16 16 15 13 11 9 7 5 4 1 2 4 5 7 8 9 10 10 12 12 14 16 17 17 17 16 16 20 23 25 25 27 28 28 29 30 30
8 9 10 10 7 1 4 5 5 2 5 7 8 9 11 12 12 13 12 9 9 10 10 11 13 15 18 17 14 13 9 6 9 7 7 5 4 7 9 9 11 10 8 8 8 8 8 10 13 16 17 16 14 12 11 8 6 5 4 1 2 4 6 7 8 9 10 11 12 12 13 14 16 17 18 17 18 21 23 23 24 26 26 26 27 28 29
7 9 9 7 5 2 2 3 5 6 7 9 10 10 10 10 11 12 11 10 10 10 11 13 14 15 17 16 12 10 8 6 6 8 10 10 9 10 11 11 12 10 8 8 9 8 9 11 14 17 17 16 14 12 10 8 6 5 3 2 2 4 6 7 8 9 10 11 12 12 13 14 15 16 17 17 18 21 21 21 23 24 24 25 26 27 28
8 9 9 9 10 9 9 9 10 11 11 11 11 10 8 7 7 7 9 11 11 11 12 13 13 13 14 13 10 10 8 8 8 8 10 11 10 10 9 8 8 8 7 6 7 8 9 12 15 17 17 15 14 12 10 8 6 5 4 2 2 4 6 7 8 10 11 11 12 12 13 14 14 14 16 17 18 21 21 20 21 22 23 24 24 25 26
10 11 13 13 14 13 12 12 10 10 10 10 8 6 5 7 6 5 7 11 11 11 12 12 11 12 13 11 8 8 8 8 9 9 9 8 8 8 7 6 5 5 5 6 8 8 10 13 16 16 16 15 13 11 10 8 7 5 3 1 2 3 5 7 8 10 11 12 12 13 14 13 12 13 15 16 18 20 20 20 20 20 22 23 23 24 24
9 10 11 12 14 14 13 13 13 11 10 9 6 4 5 7 8 8 9 11 12 12 12 12 12 13 12 7 4 6 8 9 9 8 6 6 6 6 5 5 4 5 5 6 8 9 11 13 16 16 15 14 13 11 10 9 7 6 3 0 1 2 4 6 7 9 11 11 12 13 13 12 11 12 14 16 17 18 19 19 20 20 21 22 22 23 23
8 11 12 13 16 18 17 16 12 6 5 8 9 8 9 9 8 9 10 10 11 11 12 13 13 10 5 2 2 7 9 8 7 4 4 4 4 5 5 5 5 6 6 7 9 10 11 13 16 16 15 14 13 11 11 10 8 6 4 1 1 3 4 5 7 10 10 10 11 13 13 12 11 12 13 14 16 17 17 17 18 20 20 20 21 22 23
11 14 14 13 15 17 17 14 8 2 4 5 8 11 13 11 8 8 9 9 10 11 12 11 8 4 2 2 5 8 8 5 4 3 3 3 3 5 5 4 4 4 5 7 9 10 11 13 16 17 15 14 13 12 11 9 7 6 4 2 1 2 3 4 7 10 10 9 11 13 13 12 11 11 11 12 13 15 16 16 18 19 20 21 22 23 25
10 11 10 10 11 11 11 11 9 5 4 6 8 10 12 9 6 7 9 9 10 10 9 7 4 2 2 4 7 7 4 1 2 2 3 3 4 3 3 3 4 5 5 6 8 10 12 14 16 17 15 13 13 12 11 9 7 5 3 2 1 1 3 5 7 10 10 10 11 13 13 13 12 11 11 12 12 13 17 19 20 20 21 22 24 25 26
11 11 11 10 10 10 11 13 12 9 8 10 9 9 10 8 5 6 8 9 9 8 8 7 6 5 6 6 6 7 6 4 3 3 4 4 3 2 3 4 4 5 6 7 9 10 12 14 16 17 15 13 13 13 11 9 7 5 3 1 1 3 5 6 6 8 10 10 12 13 13 13 13 12 12 13 14 15 19 22 22 22 22 22 23 26 27
14 13 12 10 10 12 13 13 13 12 10 10 10 9 9 7 5 5 5 7 6 4 5 8 9 9 8 9 7 5 5 6 5 5 6 5 4 3 4 4 4 4 7 9 10 10 12 14 16 17 15 14 14 12 11 9 7 4 2 0 2 4 6 6 6 8 9 10 11 12 14 14 14 12 13 14 15 16 19 23 23 22 22 22 23 26 27
14 12 11 11 11 13 14 13 13 13 9 7 8 9 8 4 3 3 4 5 3 3 5 7 10 11 11 11 10 8 5 4 4 7 7 4 2 3 3 4 4 5 8 10 10 12 13 15 17 18 16 14 13 12 10 9 7 5 3 0 2 4 5 7 8 9 9 10 10 12 13 14 14 13 13 14 16 18 19 22 23 21 20 22 25 27 27
14 12 12 13 13 12 12 12 11 9 7 4 5 9 7 0 4 3 2 2 1 6 8 8 11 14 14 11 8 6 3 1 3 6 5 2 0 1 2 4 5 7 9 11 11 14 16 17 18 17 15 14 12 11 10 8 7 5 3 1 1 2 4 6 9 9 9 9 10 11 12 13 14 14 13 14 17 18 18 20 23 22 20 23 27 28 28
14 12 11 13 13 11 12 12 8 6 6 8 9 10 7 1 6 5 3 3 6 9 11 12 14 17 13 6 3 2 1 0 2 3 3 4 3 2 4 6 8 10 11 12 12 14 16 16 16 15 13 12 11 10 9 8 7 5 4 3 3 3 3 4 7 9 9 10 10 9 11 13 14 14 13 13 15 17 16 16 21 23 22 25 28 28 28
12 11 10 11 13 12 11 11 8 6 8 11 10 8 6 2 3 4 4 5 7 9 11 14 16 14 8 3 4 3 1 4 5 5 5 6 7 7 9 11 13 12 12 11 11 13 14 13 12 11 10 9 9 9 8 8 7 6 5 4 4 5 6 6 7 9 10 10 9 10 11 12 12 14 14 13 14 15 14 14 17 21 22 24 27 28 29
10 10 10 11 12 12 11 9 9 9 10 9 8 8 7 5 4 5 5 5 6 7 9 12 13 12 6 3 3 2 4 6 7 7 8 9 9 10 11 14 16 15 14 12 10 8 10 10 10 9 8 7 8 8 7 7 7 6 5 5 6 7 6 7 9 11 12 11 10 10 11 11 11 13 15 14 13 13 12 12 15 18 20 23 25 27 29
9 8 9 10 10 10 9 8 9 10 9 7 8 9 7 6 6 6 5 7 8 8 9 9 10 9 7 6 4 4 6 7 9 11 13 13 12 12 12 13 14 14 14 15 14 11 7 5 4 4 5 4 5 6 6 6 6 6 4 5 6 7 7 8 10 12 13 13 12 11 11 12 12 12 13 14 14 12 10 10 13 15 18 21 24 24 26
11 8 9 10 9 8 9 8 7 7 7 7 8 8 7 7 7 5 4 7 8 8 8 8 8 6 7 8 6 6 8 9 10 13 15 16 16 16 16 15 14 13 13 14 16 16 14 11 9 7 6 4 3 2 2 2 1 1 3 5 8 10 10 9 9 11 12 13 13 12 11 12 13 12 12 13 14 12 10 10 10 13 17 19 21 22 25
12 10 9 8 5 5 6 5 5 6 7 7 6 7 8 8 5 1 5 6 8 8 7 7 7 4 7 9 8 9 10 11 12 15 16 18 18 18 18 18 17 16 16 16 16 15 14 13 11 9 7 7 7 5 3 2 1 2 3 6 11 12 9 5 7 11 12 13 14 12 11 11 13 12 12 13 13 12 12 10 9 10 14 16 19 21 25
7 6 6 6 6 5 5 5 6 7 8 7 6 6 7 3 3 7 7 6 7 7 5 4 5 6 9 9 10 11 12 13 14 16 18 19 19 18 19 19 20 20 18 17 16 15 14 13 11 9 9 9 8 7 4 1 3 6 7 9 12 13 10 7 8 11 12 12 13 12 10 9 10 11 12 12 12 12 12 11 9 8 9 12 17 22 25
4 6 8 8 8 8 8 8 7 7 7 7 6 5 2 4 9 11 10 9 7 5 4 5 7 9 10 10 10 12 12 11 11 13 17 19 19 19 20 20 21 21 20 19 18 17 16 14 12 10 10 10 9 8 6 4 4 7 8 9 10 12 12 10 10 11 11 11 13 13 10 8 9 11 11 11 12 12 11 11 10 8 6 8 13 20 24
7 9 10 10 10 10 8 7 7 6 6 6 5 3 2 8 12 12 11 11 8 4 4 6 7 9 11 13 13 13 13 13 12 14 17 19 19 19 19 20 20 20 20 20 19 18 16 17 16 14 12 11 11 10 7 5 5 6 6 7 7 9 9 9 10 12 10 9 10 12 10 8 8 9 10 11 12 13 12 10 10 9 7 6 7 12 18
9 10 10 10 11 11 9 8 7 6 5 5 4 4 8 12 14 13 12 11 8 5 7 11 12 13 14 16 18 18 17 16 15 16 17 18 19 19 20 20 20 19 18 18 18 16 15 16 18 16 14 12 13 13 12 8 6 6 6 6 6 7 7 8 9 9 7 7 9 10 10 7 6 7 9 11 12 13 13 12 10 9 8 6 5 6 10
11 12 10 10 12 13 12 11 10 8 7 8 9 11 13 15 15 14 13 11 9 11 14 14 12 13 16 19 20 20 19 17 17 18 19 19 19 20 20 20 19 17 16 15 16 16 16 14 15 15 15 14 14 15 15 13 10 8 7 6 6 7 6 7 8 8 7 8 9 8 7 7 8 8 9 10 11 12 13 13 12 10 8 7 6 5 6
12 12 11 11 12 13 13 14 14 12 11 12 13 15 17 19 19 19 19 18 13 12 16 16 13 15 20 21 20 19 20 19 19 20 20 20 21 21 20 18 17 16 15 15 15 19 21 19 15 14 15 15 14 15 16 16 15 12 8 7 8 8 6 5 6 6 7 7 7 7 7 7 8 9 9 10 12 11 9 8 11 11 10 8 8 7 6
11 10 11 12 11 12 14 15 16 16 15 15 15 17 20 23 24 21 20 21 20 13 15 19 18 18 20 20 19 19 20 19 19 20 20 20 21 21 20 19 18 17 16 15 15 18 22 22 18 16 17 16 15 16 19 19 17 12 10 9 9 9 8 7 6 5 5 5 5 5 6 6 8 9 9 11 13 13 9 8 11 13 12 10 9 9 7
8 9 10 11 11 12 13 14 15 18 21 20 19 19 20 23 25 21 18 20 23 23 18 15 16 17 17 17 18 18 18 17 17 18 17 18 19 19 18 18 18 18 18 17 15 17 20 21 20 19 20 19 17 19 22 21 16 12 11 11 11 11 10 10 9 7 7 6 5 4 4 5 6 7 8 10 13 15 14 14 15 15 13 11 10 9 8
9 11 12 12 13 14 14 14 15 20 23 23 21 20 20 21 22 20 17 17 20 24 24 19 14 14 16 16 16 16 16 17 18 17 16 16 16 15 15 15 17 19 19 17 16 16 18 20 21 22 23 22 21 21 23 20 15 12 11 12 13 13 12 12 12 11 10 9 8 7 7 6 6 6 8 10 12 13 14 15 16 16 15 13 11 10 9
12 14 15 15 15 16 17 16 17 20 22 21 19 19 19 19 19 19 19 19 19 19 22 23 19 15 15 15 15 16 16 17 18 19 19 18 16 14 13 13 15 18 19 17 16 16 17 19 22 23 24 22 21 21 21 19 15 12 12 12 13 14 14 14 14 13 12 11 10 9 9 10 10 10 11 12 12 13 14 15 16 16 16 16 15 13 11
14 16 17 17 17 18 19 19 19 19 20 19 18 18 18 18 17 19 22 24 22 20 19 21 21 18 15 14 14 14 14 14 15 16 17 18 18 17 15 13 14 16 18 17 15 15 17 21 23 23 22 20 19 19 19 17 14 13 14 13 13 14 14 14 15 15 14 14 13 11 12 13 14 14 15 16 16 15 15 15 15 16 16 17 17 15 14
16 17 17 18 19 19 19 20 20 20 19 18 18 18 18 18 19 20 22 23 23 21 18 18 17 16 15 14 14 13 12 12 11 10 10 12 14 15 16 14 13 15 18 17 15 14 17 21 23 22 20 19 18 18 18 16 14 15 15 14 14 14 14 15 15 15 15 15 15 14 14 14 14 14 14 16 16 16 15 16 16 15 15 16 16 16 15
16 17 18 19 20 19 19 19 20 20 19 19 20 20 19 18 19 21 21 21 20 19 17 16 15 14 13 13 12 11 11 11 11 10 9 8 8 10 13 14 14 14 16 15 14 15 17 20 21 20 19 18 18 17 16 15 15 15 15 15 15 15 15 15 15 15 15 16 16 15 15 14 14 14 14 15 15 16 16 16 16 15 15 15 15 15 15
16 16 17 18 18 18 18 18 18 18 18 18 18 18 17 16 16 16 16 16 15 14 13 13 14 14 13 11 10 8 8 9 10 10 10 9 8 8 11 14 14 13 12 13 14 16 18 19 19 19 18 17 16 16 15 15 15 15 15 15 15 15 15 15 15 15 15 16 16 15 15 15 14 14 14 14 14 15 17 17 17 16 15 16 16 16 16
14 14 15 15 16 16 16 15 15 15 15 14 13 13 13 13 13 13 12 12 12 11 11 11 11 11 11 10 10 9 8 7 8 9 10 9 7 8 10 15 16 13 11 11 14 16 18 18 18 17 17 17 16 15 15 15 15 15 15 15 15 15 15 15 16 16 16 16 16 15 15 15 15 15 15 15 15 15 17 17 17 17 17 17 16 17 18
12 13 13 13 14 14 13 13 12 13 12 11 11 11 11 11 11 11 10 10 10 9 9 9 8 8 9 8 9 9 9 8 7 8 9 9 8 8 10 14 15 13 11 10 12 15 18 19 17 16 16 17 16 15 14 15 16 16 15 15 15 15 15 16 16 16 15 16 16 15 15 15 15 15 16 16 16 16 17 17 17 18 18 17 16 17 17
11 11 11 11 11 11 10 10 9 9 9 9 9 9 9 9 9 9 8 7 7 7 7 7 7 7 7 7 8 8 9 9 8 8 8 8 9 9 10 12 14 15 13 11 10 13 17 19 18 17 16 16 15 14 14 15 15 15 15 15 15 15 15 15 15 15 15 15 15 16 15 15 15 16 16 15 16 17 17 17 17 18 18 17 17 17 17
9 8 8 9 9 8 8 8 8 8 8 8 8 7 7 7 7 8 8 7 6 5 6 6 6 6 7 7 7 7 8 8 8 8 8 8 9 9 9 10 12 13 13 12 10 11 14 16 17 17 16 14 14 14 14 14 13 14 14 14 14 14 14 14 15 15 15 15 15 15 15 15 15 15 15 15 16 16 17 17 18 19 19 18 18 17 17
6 7 7 8 8 8 8 8 8 7 7 7 7 7 6 6 7 7 8 8 7 6 6 5 6 6 7 7 7 7 7 7 8 8 8 8 8 9 9 9 10 11 12 12 11 11 12 13 15 15 15 13 12 13 13 13 13 13 14 14 14 14 14 14 14 15 15 15 15 15 15 15 15 15 15 15 16 16 16 17 17 18 19 20 20 18 17
6 7 7 7 7 7 7 7 6 7 7 7 7 7 7 6 5 7 7 8 8 7 7 6 5 5 6 7 7 7 6 6 6 7 8 8 8 9 9 9 10 10 11 11 10 11 11 12 12 13 13 12 11 11 11 12 12 12 12 13 14 13 13 14 14 14 14 14 14 15 15 15 15 14 15 15 16 16 16 16 17 17 18 20 21 21 20
Wind_Direction
264 269 274 277 279 277 276 276 273 271 269 267 265 264 268 273 272 272 281 285 282 280 282 282 282 284 285 286 287 283 278 278 278 280 290 292 277 255 228 214 213 211 207 206 209 204 197 195 189 181 181 179 173 174 177 179 180 180 182 187 191 194 198 203 210 216 221 227 236 245 250 254 258 262 267 272 274 276 277 277 278 278 276 275 273 272 271
270 271 274 279 279 276 273 271 269 267 266 266 267 266 266 266 266 269 276 278 277 276 276 278 279 282 284 284 282 277 270 264 260 261 263 267 283 280 259 232 216 212 213 209 200 193 192 190 182 177 179 179 175 177 178 178 179 179 181 185 190 195 200 204 210 217 224 232 239 246 250 254 260 265 270 274 276 278 280 280 281 280 278 277 275 273 272
271 270 273 275 273 272 272 268 264 264 267 268 267 266 265 265 266 268 269 271 274 271 271 274 279 281 280 277 274 270 268 264 255 250 253 249 250 268 270 254 230 213 213 210 193 186 189 187 181 178 180 181 180 180 179 178 179 179 181 186 191 196 202 207 212 219 228 238 244 248 252 257 263 268 272 276 278 281 284 284 284 283 281 279 277 275 274
268 267 267 267 270 272 270 264 261 263 266 264 263 262 262 261 263 267 266 265 265 267 270 273 276 277 275 273 273 268 264 264 256 246 247 245 240 241 248 256 247 223 205 198 187 185 186 182 179 177 178 183 184 181 180 179 180 181 182 186 191 196 205 211 217 226 237 246 250 253 258 261 266 272 275 278 281 284 286 288 288 287 285 282 280 277 275
269 272 272 275 281 276 264 259 258 257 255 256 259 260 259 257 257 261 263 262 263 269 274 275 275 277 276 274 275 275 271 268 261 253 247 242 241 238 230 248 252 225 190 189 188 184 181 179 181 181 182 188 188 183 182 181 181 182 181 186 193 199 207 216 226 237 245 252 256 258 262 266 271 275 276 279 283 287 290 291 291 290 288 285 282 279 277
268 273 275 276 269 258 258 265 264 258 259 261 260 258 257 256 255 256 258 262 267 269 271 274 275 276 276 276 278 278 278 279 275 266 256 245 243 239 222 234 242 216 184 187 182 176 178 179 180 181 181 187 187 182 182 181 181 182 183 190 198 203 212 223 236 246 250 256 261 263 266 269 273 274 276 279 285 290 292 292 292 292 291 288 285 282 279
265 271 268 257 249 250 264 275 269 266 270 269 266 264 264 262 263 265 267 268 271 272 277 284 287 286 289 291 289 286 281 277 278 275 265 249 237 238 227 224 221 198 175 174 166 167 174 168 166 172 176 182 183 181 181 180 180 184 190 195 202 207 217 230 243 251 254 258 263 266 268 271 273 274 277 282 288 294 295 293 292 293 292 290 287 284 281
258 261 252 249 256 267 275 275 274 276 275 273 272 270 269 271 274 276 276 277 280 288 300 308 308 306 305 301 294 291 284 272 266 278 272 251 208 189 224 216 196 173 167 166 162 167 170 163 168 179 180 182 182 180 181 180 182 188 195 201 207 211 219 234 248 256 261 264 267 270 270 273 275 277 281 286 293 298 297 294 293 293 293 291 288 285 283
252 255 254 259 269 274 271 269 277 287 283 287 299 290 277 278 280 280 282 286 294 308 319 318 317 316 309 297 281 276 276 270 258 258 273 262 225 203 207 192 166 161 166 162 160 163 164 169 182 188 184 183 182 180 181 183 186 190 195 204 215 217 222 241 256 263 267 269 271 272 273 276 278 280 286 292 296 301 299 296 296 296 295 293 290 287 286
252 257 259 264 265 265 269 268 77 356 318 340 8 300 285 284 289 301 309 306 308 319 321 316 318 317 304 292 283 280 288 286 269 251 263 260 232 201 182 159 145 153 159 156 157 160 166 177 189 192 187 182 180 181 183 187 191 193 198 206 217 223 234 257 270 273 275 274 273 274 277 280 282 286 293 296 298 303 303 299 298 299 297 295 292 290 288
252 253 257 260 255 259 278 275 131 126 300 316 270 275 282 309 342 343 328 312 306 312 315 313 314 309 294 290 298 314 325 313 286 256 250 241 202 163 147 144 147 152 157 159 158 160 170 182 192 195 186 180 181 183 185 190 194 198 205 208 215 239 264 278 282 282 281 278 275 277 279 282 287 292 297 299 300 304 303 300 300 300 299 296 294 292 291
251 251 255 260 258 269 287 284 216 160 190 235 276 268 271 8 351 321 317 317 313 313 314 310 303 295 294 299 306 310 313 308 284 243 217 199 161 142 147 157 155 152 161 172 172 171 179 188 194 191 182 179 183 184 185 190 195 199 203 200 220 279 286 286 283 281 279 277 277 279 283 288 292 296 298 301 306 309 305 302 302 301 299 298 296 295 293
253 254 257 261 265 282 315 325 346 1 322 256 259 275 320 350 327 319 327 325 321 319 314 308 299 296 298 302 306 300 282 264 273 261 213 179 167 160 153 150 153 165 178 186 186 181 185 191 190 184 181 181 183 183 184 188 191 188 178 175 249 285 287 283 282 281 281 283 285 287 290 294 295 296 299 304 311 313 308 304 302 301 300 300 298 296 295
252 257 262 267 271 293 43 5 345 332 287 268 268 303 325 319 309 313 318 317 320 323 316 308 301 300 299 297 304 305 276 208 193 250 266 218 185 147 117 124 168 193 184 174 179 183 184 188 187 183 181 181 181 182 181 179 178 168 152 169 262 278 283 281 284 287 286 288 291 290 291 296 299 300 304 313 317 312 307 305 303 303 303 302 300 299 298
252 255 256 264 276 327 72 359 334 277 252 281 298 304 304 303 307 311 310 312 322 322 315 308 302 301 301 298 306 315 295 209 182 203 217 206 176 139 133 165 194 198 183 175 182 187 184 187 187 182 180 181 180 177 174 170 164 151 144 198 269 282 284 283 286 288 288 292 294 293 295 299 302 303 307 315 317 310 307 306 305 304 304 304 303 301 299
256 256 254 267 294 291 204 265 287 268 262 281 294 295 299 307 314 314 309 312 320 317 311 306 303 302 299 298 310 322 301 261 228 211 192 175 170 175 183 187 181 182 192 187 176 177 184 188 185 180 179 180 177 172 169 167 165 158 156 193 265 281 283 287 294 295 298 301 299 300 304 304 304 307 311 314 313 309 308 306 304 304 305 304 305 303 300
262 267 274 289 300 295 282 279 288 296 298 297 299 306 311 308 310 316 307 303 310 316 309 303 303 302 297 298 319 333 308 271 250 225 194 175 171 176 181 174 164 176 195 184 170 175 184 186 181 178 179 177 170 170 170 166 166 168 162 181 257 284 295 306 313 310 308 308 306 308 310 307 308 314 315 314 314 312 310 305 302 305 306 305 304 302 299
282 267 260 269 278 281 283 285 287 288 283 275 276 294 310 305 305 308 297 299 312 317 307 302 302 298 294 299 319 329 307 268 240 220 194 174 166 168 169 161 161 183 190 180 181 182 181 183 179 175 177 176 169 168 169 163 164 166 152 184 255 294 321 326 326 321 317 316 316 315 310 307 313 319 316 314 317 316 310 304 302 305 308 307 306 303 300
287 270 265 280 289 290 290 286 279 274 271 272 280 299 307 305 308 313 311 314 321 316 302 299 298 294 296 311 319 304 295 274 245 219 189 165 158 159 154 142 154 190 192 184 188 183 177 180 177 170 175 180 173 165 161 158 160 156 135 154 278 340 347 338 336 333 328 324 320 316 313 313 317 319 317 317 320 319 313 306 303 305 309 311 311 308 307
261 265 274 285 289 287 284 279 279 296 330 332 329 318 304 300 307 317 325 331 329 317 304 301 299 292 297 346 274 260 270 276 266 236 192 168 153 142 134 135 163 190 190 185 186 180 174 176 173 168 170 174 168 161 158 157 156 144 126 107 15 17 3 351 349 343 334 329 326 324 323 322 319 317 318 318 318 318 315 307 301 303 307 308 308 311 313
260 261 265 268 274 278 274 271 277 20 44 336 315 307 303 308 324 333 337 346 341 323 308 307 307 285 231 262 267 254 244 244 261 253 207 182 166 148 141 146 160 174 188 192 185 174 173 178 173 166 168 173 169 162 159 159 153 140 135 144 99 26 2 356 359 349 335 330 336 335 329 323 320 320 323 323 317 315 314 309 304 305 304 301 303 310 315
269 273 282 286 286 286 284 285 301 354 8 319 309 306 301 310 354 354 336 341 342 328 317 320 331 323 284 297 307 309 297 230 223 249 237 211 196 175 159 165 169 165 177 193 184 170 170 176 173 167 170 176 172 163 160 160 153 145 156 188 191 1 345 348 357 349 334 330 338 337 331 328 324 319 324 330 329 325 324 320 316 315 312 308 312 315 316
277 283 286 284 283 286 290 295 306 326 329 311 303 299 296 308 356 1 339 340 342 331 323 322 319 317 312 305 315 331 330 318 303 296 288 277 256 223 210 206 193 172 169 182 186 175 169 172 172 170 168 167 162 160 164 164 157 157 178 224 335 348 345 346 344 331 325 330 337 335 332 331 326 319 323 331 334 335 335 330 326 324 321 320 323 326 326
276 279 278 279 283 285 290 299 305 307 306 302 297 291 294 316 356 14 2 354 340 312 302 303 298 298 302 298 292 289 284 284 297 306 301 301 306 285 244 217 195 175 173 176 177 171 166 166 166 162 157 157 159 164 168 165 160 165 174 343 347 344 346 343 330 322 324 331 336 336 335 334 330 324 324 328 332 337 336 333 329 327 326 326 329 334 337
270 277 283 285 283 283 287 293 294 295 306 324 315 297 294 318 11 26 24 16 338 258 256 276 282 284 283 276 266 258 254 265 289 293 291 287 286 279 252 209 180 169 164 160 157 157 158 158 158 157 158 162 168 172 172 166 165 167 161 66 339 346 353 342 328 325 331 334 336 340 340 337 334 332 330 331 337 339 336 334 333 332 332 334 338 342 346
281 282 285 284 279 279 283 285 291 310 328 320 280 280 286 239 137 148 81 58 249 244 246 256 273 283 280 266 251 247 246 241 277 288 301 328 347 239 210 180 165 155 147 143 144 149 153 154 156 160 166 172 175 176 173 168 170 175 174 193 292 338 3 350 332 323 328 336 337 340 343 340 337 337 336 335 339 343 342 339 338 337 337 340 344 349 351
281 279 282 281 278 277 279 282 298 333 315 277 272 288 304 130 152 174 176 163 200 230 243 255 271 280 278 258 220 227 230 81 359 355 35 55 54 70 109 119 122 127 129 130 133 140 148 155 161 168 174 177 175 178 180 178 177 182 192 221 266 266 257 297 319 321 327 334 334 339 346 344 337 337 339 335 337 346 353 348 340 337 339 342 346 352 356
278 283 283 277 275 277 281 288 301 305 282 277 286 298 301 259 197 218 219 183 189 220 241 254 267 275 270 196 173 193 109 65 52 54 74 80 77 80 87 87 87 94 107 117 129 143 152 160 169 174 174 171 176 185 187 186 190 197 205 231 274 275 260 274 312 326 325 323 325 335 341 335 329 336 343 339 337 345 355 354 345 341 341 341 344 353 1
299 304 296 282 278 280 281 284 286 278 276 284 294 293 287 275 253 248 235 195 181 206 234 254 269 272 258 186 161 139 82 69 64 66 70 72 75 79 81 78 74 70 72 77 88 124 158 172 181 174 160 163 189 201 194 191 202 208 212 240 274 291 301 317 331 330 323 319 326 333 327 318 324 341 347 344 341 346 353 356 352 346 342 341 344 352 359
301 310 302 289 285 286 282 279 278 280 289 300 298 293 290 280 268 255 220 178 167 188 222 256 275 260 218 182 156 123 98 79 69 67 65 65 68 70 71 72 67 60 55 51 48 54 84 127 147 135 122 147 199 208 198 198 213 221 228 254 276 291 305 317 323 321 319 323 330 330 324 326 336 346 348 346 345 348 355 359 356 352 347 345 348 352 355
295 289 275 268 267 271 273 274 281 291 300 302 298 299 298 288 283 267 191 156 154 178 215 253 275 247 184 164 149 126 108 88 75 70 67 65 65 65 66 68 66 61 57 52 47 49 58 65 66 60 58 71 95 117 134 148 202 262 260 284 294 285 271 277 298 308 312 316 318 319 327 337 342 344 348 349 347 350 357 1 2 2 358 353 354 356 357
302 291 282 280 281 280 283 294 309 309 306 304 304 304 299 294 294 118 128 140 155 174 200 245 265 220 161 149 135 115 102 89 80 74 70 68 67 66 68 70 69 65 61 56 53 53 55 59 62 59 60 70 72 65 81 124 62 325 295 299 301 288 268 269 305 307 304 306 311 318 330 339 343 348 354 353 350 353 1 4 6 12 10 3 0 1 1
313 323 344 356 359 346 337 344 343 328 321 320 312 297 291 292 110 110 109 124 157 175 194 232 222 176 152 141 126 112 102 93 83 76 72 71 70 67 66 68 68 65 61 57 55 54 51 50 51 52 57 67 65 54 52 62 268 272 267 274 283 285 287 304 311 302 300 308 318 325 329 331 340 351 355 351 349 355 3 6 9 16 18 12 8 9 11
24 39 33 24 20 12 4 1 355 343 334 325 308 291 277 117 119 122 126 135 151 170 193 197 184 164 140 121 111 106 101 93 85 80 77 75 72 70 70 70 69 67 62 56 52 50 46 42 45 48 51 54 52 44 34 7 309 281 270 274 285 291 297 305 302 298 304 318 325 325 324 332 349 354 349 346 351 359 7 12 12 12 16 15 12 15 18
57 55 43 32 29 24 18 14 7 351 336 327 312 290 137 125 127 130 131 132 140 168 180 159 143 128 115 106 99 93 89 84 82 82 81 79 76 74 72 71 70 68 64 57 52 47 44 44 48 50 50 49 45 36 24 2 332 307 294 295 301 300 298 297 293 295 308 326 328 323 326 341 353 347 343 351 1 3 6 15 18 15 13 11 6 10 16
62 60 53 45 40 37 35 33 24 4 352 3 31 77 102 110 114 115 115 118 125 134 126 114 104 97 96 97 95 90 85 82 80 80 81 82 81 77 73 70 66 63 60 56 50 41 37 44 50 50 50 50 44 34 28 23 2 332 311 301 301 302 301 300 301 307 325 333 323 319 324 326 319 322 341 3 14 13 9 13 18 19 18 15 7 6 12
66 64 61 52 46 45 43 38 33 32 33 37 53 76 88 88 80 71 69 77 93 103 103 105 112 112 105 103 102 101 97 93 90 86 84 82 79 74 70 66 60 55 52 49 41 27 22 35 52 53 48 47 43 35 30 25 5 338 318 314 329 336 331 326 329 337 336 318 304 305 315 316 317 334 357 14 21 20 15 12 14 20 25 25 23 22 20
77 73 70 62 52 46 42 38 37 44 48 46 50 62 71 69 62 54 47 42 51 92 114 119 122 119 113 109 107 105 102 99 94 89 85 81 76 72 65 59 54 50 47 45 38 25 21 30 47 50 42 39 38 29 17 6 357 350 348 352 357 357 354 349 345 336 322 310 306 313 326 332 338 350 6 14 15 15 17 18 19 23 28 29 30 33 33
83 77 75 70 59 49 44 40 38 41 48 52 52 53 57 60 58 53 46 36 34 59 111 121 114 109 111 111 108 105 103 101 96 91 86 81 77 74 67 60 53 45 39 39 40 33 27 29 37 38 32 30 29 18 4 355 355 2 13 14 7 1 2 6 2 341 329 329 322 317 333 354 357 355 4 14 15 18 30 39 33 31 32 31 33 40 41
83 79 77 75 69 59 51 44 41 43 48 53 52 50 53 57 55 48 43 40 37 40 56 84 101 106 107 106 106 104 100 96 94 92 88 81 77 73 67 59 49 38 32 34 39 37 32 31 32 30 24 20 17 11 4 359 359 12 25 22 14 10 9 9 8 5 2 356 339 323 346 10 6 359 6 15 17 20 28 34 34 34 34 33 34 41 48
94 92 86 80 74 68 60 53 49 49 50 53 54 53 54 57 55 48 42 42 44 43 41 44 64 91 97 93 92 89 81 74 74 76 75 73 70 66 62 53 38 28 29 35 37 35 33 31 30 27 23 18 13 9 6 3 6 18 28 25 20 19 17 12 12 15 13 3 354 355 3 7 8 7 11 16 19 21 22 26 31 33 33 33 35 38 43
102 98 90 82 78 74 69 64 61 58 55 56 58 60 60 59 59 58 54 49 48 48 43 37 44 73 96 97 93 89 84 77 73 69 65 61 57 55 57 48 31 25 29 33 32 32 31 28 26 25 22 17 13 10 7 7 12 21 26 25 22 22 21 18 16 17 17 12 9 7 4 3 6 9 6 7 13 17 15 17 23 27 28 31 36 36 36
98 95 91 87 84 81 77 74 72 70 66 62 61 63 67 66 63 64 64 59 53 48 44 41 46 62 79 82 80 82 81 77 75 75 71 65 57 51 48 39 26 25 31 31 27 27 27 23 22 21 19 15 13 12 10 11 17 21 21 22 23 22 21 21 19 19 19 17 15 14 12 9 10 12 8 5 7 12 10 8 9 14 18 23 28 31 34
94 91 90 90 89 86 83 81 80 78 77 76 73 72 72 72 69 67 67 64 57 50 44 42 47 57 65 65 63 64 62 59 59 66 71 68 58 48 41 32 21 24 31 33 28 23 21 18 16 15 13 13 17 17 14 15 19 20 19 21 22 20 20 20 20 20 21 19 16 17 18 17 16 17 15 10 8 10 9 4 2 3 7 11 14 17 22
92 90 89 90 89 87 85 84 83 84 85 86 85 82 79 77 75 72 69 66 61 54 47 41 39 44 55 61 62 63 62 58 52 47 49 55 53 41 32 26 23 24 29 31 28 20 14 11 11 11 11 14 17 18 16 15 17 17 18 20 21 20 19 19 17 18 20 19 17 17 18 18 19 21 20 16 14 13 10 8 6 6 7 9 10 10 12
92 91 90 90 88 88 88 88 88 90 89 87 84 83 82 81 79 77 73 69 65 61 56 50 43 39 39 44 47 50 56 62 61 52 46 52 66 56 30 21 24 29 31 29 25 19 9 3 4 9 15 19 20 18 15 14 15 16 17 19 19 19 19 17 15 15 17 17 16 17 18 19 19 19 18 17 18 16 14 14 13 12 10 11 13 13 13
95 94 92 91 89 88 89 88 86 87 87 85 83 83 83 82 82 83 81 78 74 69 63 59 55 48 42 39 37 32 28 36 53 55 45 40 54 57 32 17 19 29 34 28 21 15 6 0 3 12 21 25 23 19 15 15 16 16 16 18 19 19 19 17 14 14 14 13 14 16 19 20 20 19 17 17 17 15 14 15 15 13 11 12 14 15 16
97 96 94 94 92 88 87 87 84 83 82 83 84 86 86 86 87 88 86 86 86 83 75 68 63 58 51 47 44 39 29 21 28 40 36 25 28 38 30 18 18 27 35 29 17 9 4 3 9 20 28 27 23 19 17 17 17 16 17 18 18 18 18 17 14 11 11 12 12 14 16 19 20 19 18 18 18 16 15 16 15 13 11 12 13 15 17
99 99 96 94 92 90 90 89 86 82 80 79 78 79 79 78 77 75 72 71 76 79 77 73 68 60 54 52 49 45 42 37 31 27 25 25 27 29 25 19 21 26 27 24 18 14 10 9 13 23 29 28 23 20 19 18 18 18 19 19 19 18 18 17 15 14 13 14 14 15 16 17 18 19 19 19 19 18 16 17 17 15 13 12 13 14 16
97 97 89 81 78 78 79 78 76 74 74 70 65 62 64 67 64 54 43 37 40 49 54 57 56 48 42 43 43 39 36 38 38 31 26 27 31 28 24 24 26 27 26 22 19 18 17 15 16 20 24 24 23 23 21 20 21 22 21 20 19 19 17 15 16 17 18 17 16 17 17 16 17 20 21 21 21 19 18 17 17 17 16 16 15 13 13
96 93 86 81 77 74 72 72 70 68 66 64 60 54 53 64 75 66 43 23 20 28 32 36 44 43 31 24 28 32 29 28 31 30 27 26 28 29 29 28 26 25 24 22 18 16 16 16 17 18 20 21 22 22 22 22 23 23 22 20 20 19 17 16 17 18 18 19 19 19 18 17 17 20 21 21 21 21 21 20 19 19 19 21 21 19 17
89 89 90 91 89 82 75 70 67 61 54 50 48 40 28 28 51 65 53 35 26 25 17 10 23 43 37 21 13 17 21 25 30 29 24 22 21 21 23 24 24 22 20 17 13 12 13 14 15 17 19 19 19 19 20 22 22 20 19 22 23 22 20 20 20 20 20 21 21 20 21 22 24 24 22 21 21 22 23 24 23 22 21 24 28 30 30